{"data":{"norad_id":58154,"intl_designator":"2023-166E","name":"STARLINK-30797","alt_names":[],"object_type":"PAYLOAD","status":"ACTIVE","operator":null,"country":"US","launch_date":"2023-10-29","launch_site_code":"AFWTR","launch_vehicle":null,"mission":null,"orbit_class":"UNKNOWN","rcs_meters":null,"size_class":null,"mass_kg":null,"dimensions":null,"purposes":["comms"],"wikipedia_slug":null,"has_3d_model":false,"image_url":null,"decayed_at":null,"tle_current":{"epoch":"2026-05-24T17:10:20.699040Z","epoch_age_seconds":93514,"freshness":"FRESH","line1":"1 58154U 23166E   26144.71551735  .00000299  00000+0  22226-4 0  9999","line2":"2 58154  53.1604 226.6472 0001128  75.7948 284.3178 15.30193147144663","mean_motion":15.30193147,"eccentricity":0.0001128,"inclination_deg":53.1604,"raan_deg":226.6472,"arg_perigee_deg":75.7948,"mean_anomaly_deg":284.3178,"bstar":2.2226e-5,"rev_number":14466,"period_min":94.105767159079,"perigee_km":474.4624708969,"apogee_km":476.00859173996,"semimajor_km":6853.3725313184,"source":"CELESTRAK","updated_at":"2026-05-25T13:38:18.536784Z"}}}